[[{"header":{"parameterUnit":"m.s-1","parameterCategory":1,"la1":30.2991,"la2":30.254,"lo1":-89.0895,"lo2":-89.0444,"dy":0.0017,"dx":0.0017,"nx":28,"ny":28,"refTime":"2025-05-17T21:00:00:Z","depth":0,"parameterNumber":2,"parameterNumberName":"U-component_of_WINDS"},"data":[0,0,0,0,0,0,0,0,0,0,0,0,0,0,0,0,0,0,0,0,0,0,0,0,0,0,0,0,0,0,0,0,0,0,0,0,0,0,0,0,0,0,0,0,0,0,0,0,0,0,0,0,0,0,0,0,0,0,2.4004,2.4003,0,2.3988,2.3988,2.3988,2.3919,2.3917,2.3915,2.3914,2.3898,2.3899,2.39,0,0,0,0,0,0,0,0,0,0,0,0,0,2.3972,2.3973,2.4004,2.4003,2.4003,2.3988,2.3988,2.3988,2.3919,2.3917,2.3915,2.3913,2.3898,2.3899,2.39,0,0,0,0,0,0,0,0,0,0,0,0,0,2.3974,2.3974,2.4004,2.3967,2.3964,2.3988,2.3988,2.3988,2.3919,2.3917,2.3914,2.3912,2.3897,2.3899,2.39,2.3959,0,0,2.3905,2.3906,0,0,0,0,0,0,0,0,2.3974,2.3976,2.3973,2.397,2.3966,2.3953,2.3971,2.3978,2.392,2.3936,2.3914,2.3911,2.3918,2.3918,2.392,2.3958,2.3957,2.3905,2.3906,2.3907,2.3907,0,0,0,0,0,0,0,2.3974,2.3976,2.3997,2.3973,2.3969,2.3951,2.3949,2.3972,2.3941,2.3935,2.393,2.3929,2.3916,2.3919,2.3919,2.3957,2.3905,2.3907,2.3908,2.3908,2.4039,2.4042,0,0,0,0,0,0,2.3979,2.3976,2.3998,2.3997,2.3964,2.3954,2.3951,2.3959,2.394,2.3935,2.3931,2.3925,2.3917,2.3918,2.3919,2.3983,2.3907,2.3909,2.3909,2.4037,2.404,2.4042,0,0,0,0,0,0,2.3979,2.3982,2.3999,2.3985,2.3986,2.3957,2.3967,2.396,2.3963,2.3938,2.3932,2.394,2.3915,2.3916,2.3949,2.3982,2.3909,2.3911,2.4034,2.4038,2.4041,2.4116,0,0,0,0,0,0,2.3978,2.3982,2.4005,2.3986,2.3987,2.403,2.3969,2.3962,2.3966,2.3959,2.3944,2.3939,2.3914,2.3947,2.395,2.3983,2.3912,2.4031,2.4035,2.404,2.411,2.4121,2.4131,0,0,0,0,0,2.3978,2.4027,2.4006,2.4009,2.4014,2.4032,2.4032,2.4001,2.3969,2.3991,2.3974,2.394,2.3978,2.3951,2.3954,2.3988,2.4028,2.4034,2.404,2.4105,2.4119,2.4131,0,0,0,0,0,0,2.405,2.4024,2.4001,2.4046,2.4041,2.402,2.4047,2.4017,2.4022,2.4015,2.3977,2.3974,2.4012,2.4003,2.3973,2.4042,2.3997,2.4004,2.4046,2.4059,2.407,2.407,2.3913,0,0,0,0,0,2.4072,2.4088,2.4064,2.4106,2.4105,2.4077,2.4083,2.4059,2.4053,2.4051,2.4037,2.4032,2.4043,2.4051,2.4059,2.4109,2.4103,2.4134,2.4144,2.4153,2.4159,2.4182,2.4195,2.4061,2.4061,2.4061,0,0,2.4116,2.4103,2.4116,2.412,2.4114,2.4131,2.4075,2.4097,2.4108,2.4055,2.4083,2.4073,2.4065,2.4106,2.4123,2.41,2.4195,2.416,2.4168,2.4168,2.4189,2.4202,2.4213,2.4065,2.4064,2.4063,0,0,2.4205,2.4198,2.4231,2.4225,2.4217,2.4197,2.4205,2.4188,2.4178,2.4207,2.4166,2.418,2.42,2.4195,2.4196,2.4281,2.4249,2.4285,2.434,2.4363,2.4374,2.4383,2.4411,2.4422,2.4291,2.4291,2.4291,0,2.426,2.4285,2.4251,2.4274,2.4276,2.4228,2.426,2.4257,2.4252,2.4254,2.4228,2.4251,2.4242,2.428,2.4301,2.4303,2.431,2.4286,2.4375,2.4384,2.4392,2.4418,2.4429,2.4296,2.4295,2.4295,2.4294,0,2.4353,2.437,2.4398,2.4393,2.4398,2.4426,2.4396,2.4406,2.4382,2.4364,2.4393,2.4381,2.4385,2.4393,2.437,2.4427,2.4412,2.4382,2.4336,2.4409,2.4433,2.4443,2.4302,2.43,2.4299,2.4298,0,0,2.4487,2.4462,2.4473,2.4469,2.4455,2.4468,2.4493,2.4496,2.4504,2.4503,2.4521,2.4539,2.4509,2.451,2.4486,2.4506,2.4572,2.4472,2.4471,2.4489,2.4631,2.4653,2.4666,2.4551,2.4553,2.4555,2.4631,0,2.457,2.461,2.458,2.4626,2.464,2.4594,2.4616,2.4609,2.4594,2.4603,2.4586,2.4598,2.456,2.4559,2.4578,2.456,2.46,2.4555,2.4567,2.4568,2.4568,2.4679,2.4702,2.4775,2.4641,2.4642,2.4644,0,2.4672,2.4673,2.472,2.4701,2.4706,2.4726,2.4726,2.4736,2.4727,2.4715,2.4715,2.4685,2.4707,2.4663,2.4692,2.4662,2.4665,2.4657,2.4659,2.4658,2.4609,2.4678,2.4798,2.4808,2.4659,2.4657,2.4656,0,2.4762,2.4775,2.4804,2.4803,2.4783,2.4797,2.4789,2.4778,2.4782,2.4782,2.4784,2.4787,2.4788,2.4791,2.4762,2.4733,2.4794,2.4749,2.4783,2.4784,2.4797,2.4796,2.4917,2.4803,2.4802,2.4802,2.4802,0,2.4856,2.4886,2.4844,2.4862,2.4894,2.4859,2.4891,2.4879,2.4869,2.4883,2.4844,2.4858,2.482,2.483,2.4808,2.4834,2.4835,2.4825,2.4818,2.4827,2.4828,2.4827,2.4821,2.4805,2.4804,2.4804,2.4803,0,2.4961,2.4935,2.4963,2.4941,2.4936,2.496,2.4941,2.4956,2.4938,2.4956,2.4958,2.493,2.4939,2.4911,2.4916,2.4901,2.4939,2.4925,2.4942,2.4937,2.4972,2.4968,2.5095,2.5109,2.4988,2.4989,2.499,0,2.5022,2.5044,2.5024,2.503,2.5024,2.5035,2.5038,2.5004,2.5009,2.5,2.5016,2.5022,2.5024,2.5041,2.5021,2.5024,2.5009,2.5053,2.5009,2.5017,2.5007,2.5005,2.5006,2.5061,2.5063,2.5064,2.5065,0,2.5132,2.5118,2.5123,2.5124,2.5129,2.5128,2.5125,2.5132,2.5096,2.5103,2.5112,2.5114,2.5118,2.5124,2.5123,2.5114,2.5083,2.5079,2.5087,2.5095,2.5103,2.5097,2.4964,2.5076,2.5075,2.5074,2.5074,2.5073,2.5215,2.5232,2.5219,2.5227,2.522,2.5218,2.523,2.5213,2.522,2.522,2.52,2.5213,2.5202,2.5197,2.5191,2.52,2.5179,2.5191,2.5194,2.5197,2.5202,2.5104,2.52,2.52,2.5199,2.5199,2.5199,0,2.5321,2.5311,2.5318,2.5314,2.5319,2.529,2.5284,2.529,2.5302,2.5294,2.5298,2.5307,2.5312,2.5292,2.5294,2.5305,2.529,2.5306,2.5304,2.5302,2.5221,2.5213,2.5317,2.5317,2.5317,2.5317,2.5317,2.5317,2.5377,2.5402,2.5386,2.5407,2.5397,2.5408,2.5407,2.5404,2.5397,2.5409,2.5413,2.54,2.5387,2.5387,2.539,2.5384,2.5386,2.5406,2.5395,2.532,2.5308,2.5297,2.5289,2.5408,2.5408,2.5475,2.5475,2.5476]},{"header":{"parameterUnit":"m.s-1","parameterCategory":1,"la1":30.2991,"la2":30.254,"lo1":-89.0895,"lo2":-89.0444,"dy":0.0017,"dx":0.0017,"nx":28,"ny":28,"refTime":"2025-05-17T21:00:00:Z","depth":0,"parameterNumber":3,"parameterNumberName":"V-component_of_WINDS"},"data":[0,0,0,0,0,0,0,0,0,0,0,0,0,0,0,0,0,0,0,0,0,0,0,0,0,0,0,0,0,0,0,0,0,0,0,0,0,0,0,0,0,0,0,0,0,0,0,0,0,0,0,0,0,0,0,0,0,0,4.6099,4.6099,0,4.6171,4.6172,4.6173,4.6142,4.614,4.6139,4.6137,4.6204,4.6207,4.6211,0,0,0,0,0,0,0,0,0,0,0,0,0,4.5925,4.5929,4.6098,4.6099,4.61,4.6171,4.6172,4.6173,4.6142,4.614,4.6138,4.6136,4.6203,4.6207,4.6211,0,0,0,0,0,0,0,0,0,0,0,0,0,4.5999,4.593,4.6098,4.6094,4.6094,4.6171,4.6172,4.6173,4.6143,4.614,4.6138,4.6135,4.6202,4.6207,4.6212,4.6295,0,0,4.6227,4.6229,0,0,0,0,0,0,0,0,4.5995,4.6006,4.6094,4.6094,4.6095,4.6145,4.6135,4.6214,4.6143,4.6124,4.6137,4.6134,4.6186,4.6192,4.6211,4.6298,4.6301,4.6228,4.6231,4.6233,4.6234,0,0,0,0,0,0,0,4.599,4.6002,4.6127,4.6095,4.6096,4.6085,4.6093,4.615,4.6168,4.6126,4.6124,4.6133,4.6186,4.6207,4.6213,4.6302,4.6228,4.6232,4.6235,4.6237,4.6458,4.6461,0,0,0,0,0,0,4.5986,4.5998,4.6125,4.6129,4.6038,4.6091,4.6099,4.6131,4.6168,4.6171,4.6135,4.6131,4.6199,4.6207,4.6215,4.6314,4.6233,4.6238,4.6241,4.6455,4.6458,4.6462,0,0,0,0,0,0,4.5982,4.5998,4.6122,4.6063,4.6078,4.6096,4.6133,4.6134,4.6155,4.6175,4.6177,4.6153,4.6197,4.6208,4.6275,4.6315,4.624,4.6245,4.6452,4.6456,4.646,4.6512,0,0,0,0,0,0,4.5978,4.5996,4.603,4.6064,4.6082,4.6183,4.6135,4.6137,4.6165,4.616,4.6193,4.6196,4.6196,4.6268,4.628,4.6321,4.6249,4.6448,4.6454,4.6459,4.6507,4.6518,4.6527,0,0,0,0,0,4.5971,4.6041,4.6032,4.6048,4.6125,4.6186,4.6195,4.6197,4.6168,4.6201,4.6213,4.6195,4.6309,4.6275,4.6289,4.6332,4.6446,4.6452,4.6458,4.6502,4.6516,4.6527,0,0,0,0,0,0,4.6009,4.6045,4.6036,4.6119,4.615,4.6181,4.6222,4.6211,4.6248,4.6242,4.624,4.6247,4.6317,4.6331,4.6292,4.6413,4.6373,4.6382,4.6402,4.6414,4.6424,4.6419,4.6253,0,0,0,0,0,4.6027,4.6076,4.6104,4.6175,4.6191,4.6204,4.6231,4.6229,4.626,4.6272,4.6289,4.6318,4.636,4.6388,4.6428,4.6509,4.6514,4.6545,4.6555,4.6563,4.6571,4.6613,4.6626,4.6482,4.6482,4.6482,0,0,4.6064,4.609,4.6121,4.6183,4.6207,4.6255,4.6215,4.6268,4.6303,4.6279,4.6344,4.6358,4.6389,4.6464,4.6497,4.6477,4.6612,4.6571,4.6577,4.6581,4.6621,4.6634,4.6646,4.6487,4.6486,4.6485,0,0,4.6157,4.6183,4.6244,4.6269,4.6306,4.6314,4.6329,4.6361,4.637,4.6436,4.6418,4.6459,4.6532,4.6555,4.6576,4.6676,4.666,4.6689,4.6741,4.6782,4.6793,4.6803,4.6838,4.685,4.6697,4.6697,4.6697,0,4.6199,4.6274,4.6276,4.6331,4.6357,4.634,4.64,4.6423,4.647,4.6487,4.6465,4.6556,4.6576,4.6655,4.6679,4.6697,4.6712,4.6685,4.6792,4.6802,4.6811,4.6844,4.6857,4.67,4.67,4.67,4.6699,0,4.6322,4.6374,4.6418,4.6467,4.6498,4.6555,4.6563,4.6594,4.6589,4.6599,4.6665,4.6688,4.6732,4.675,4.6745,4.6828,4.6814,4.6792,4.6751,4.6828,4.6859,4.6872,4.6705,4.6704,4.6703,4.6702,0,0,4.644,4.649,4.6506,4.6527,4.6566,4.6605,4.666,4.6705,4.6731,4.6763,4.6808,4.687,4.6849,4.6873,4.687,4.6907,4.6983,4.688,4.688,4.6897,4.7073,4.7089,4.7104,4.6973,4.6975,4.6977,4.707,0,4.6536,4.6635,4.6638,4.6728,4.6775,4.6758,4.6806,4.6833,4.6843,4.6882,4.6892,4.6936,4.6906,4.692,4.6955,4.6966,4.7018,4.696,4.7012,4.7013,4.7004,4.712,4.7138,4.7225,4.7082,4.7084,4.7086,0,4.666,4.6699,4.6794,4.6826,4.6846,4.6889,4.6929,4.6968,4.6997,4.7002,4.7029,4.702,4.7073,4.7032,4.7104,4.7064,4.7085,4.7093,4.7097,4.7101,4.7054,4.7127,4.7253,4.7266,4.7105,4.7104,4.7102,0,4.6736,4.6812,4.6878,4.6897,4.6936,4.6966,4.6983,4.7011,4.7037,4.7072,4.7088,4.7128,4.7149,4.7179,4.718,4.715,4.7253,4.7211,4.7256,4.7256,4.7278,4.7276,4.7408,4.7293,4.7293,4.7292,4.7292,0,4.6842,4.69,4.6913,4.6954,4.7018,4.7019,4.7082,4.7096,4.712,4.7161,4.7149,4.7187,4.7187,4.7225,4.7226,4.7285,4.7295,4.7298,4.7297,4.7299,4.7298,4.7312,4.7306,4.7296,4.7295,4.7294,4.7294,0,4.6937,4.6948,4.7019,4.7051,4.706,4.7105,4.7131,4.7168,4.7177,4.7229,4.7241,4.7254,4.7298,4.7303,4.7353,4.7354,4.7424,4.7418,4.7415,4.7414,4.7458,4.7453,4.7603,4.7622,4.7495,4.7496,4.7497,0,4.7003,4.7048,4.7085,4.7113,4.7132,4.7177,4.7204,4.7206,4.7235,4.7272,4.7304,4.7348,4.7383,4.7454,4.7466,4.7504,4.7498,4.7547,4.7503,4.7503,4.7497,4.7494,4.7498,4.7555,4.7557,4.7558,4.7559,0,4.712,4.7123,4.7164,4.7208,4.7241,4.7275,4.7306,4.7329,4.7334,4.7367,4.7413,4.744,4.7493,4.7535,4.7573,4.7587,4.7574,4.7573,4.7585,4.7587,4.7583,4.7585,4.7438,4.7569,4.7568,4.7567,4.7567,4.7567,4.7202,4.724,4.7272,4.7318,4.7343,4.7372,4.7409,4.7422,4.7462,4.7507,4.7505,4.7555,4.7582,4.7631,4.7649,4.7686,4.7669,4.7687,4.7692,4.7696,4.77,4.7578,4.7693,4.7693,4.7692,4.7692,4.7692,0,4.7316,4.7336,4.7379,4.7424,4.7459,4.7446,4.7479,4.7509,4.7555,4.7582,4.7617,4.7669,4.771,4.7726,4.7765,4.7792,4.7786,4.7802,4.7799,4.7803,4.7713,4.7699,4.7806,4.7806,4.7806,4.7806,4.7806,4.7806,4.738,4.7445,4.7452,4.7527,4.7545,4.7597,4.7617,4.7643,4.7665,4.7724,4.7759,4.777,4.7792,4.7832,4.7868,4.7872,4.7886,4.7904,4.7905,4.7821,4.7809,4.7798,4.7784,4.7908,4.7908,4.7991,4.7991,4.7992]}]]